Location: Cucq
(50.4773°N, 1.6202°E)
Time: 16:51:27
(UTC+00:00)

Cosmos 1809 Rocket - Pass Details

Date: 07 August 2020
Orbit: 942 x 962 km, 82.5° (Epoch: 24 September)

Event Time Altitude Azimuth Distance (km) Brightness Sun altitude
Rises 03:03:35 0° 348° (NNW) 3,622 8.0 -12.0°
Reaches altitude 10° 03:06:05 10° 347° (NNW) 2,674 7.2 -11.7°
Maximum altitude 03:12:10 74° 264° (W) 989 4.4 -11.0°
Drops below altitude 10° 03:18:14 10° 180° (S) 2,667 6.4 -10.3°
Sets 03:20:44 0° 179° (S) 3,611 7.1 -10.0°
